This demonstration page uses our WeatherBlox Daily Observations layout. Learn more.

Left ArrowRight Arrow

Hourly Observations for October 28, 2015

Temp ( °F °C ) Dew Point ( °F °C ) Humidity (%) Winds ( mph kmh ) Pressure ( in mb ) Visibility ( mi km ) Precip ( " mm )
12:53 am 00:53 Cloudy 60 15.6 54 12.2 80 80 Calm 29.98 1015 10 16 0.00 0.00
1:53 am 01:53 Cloudy 61 16.1 54 12.2 78 78 Calm 29.98 1015 10 16 0.00 0.00
2:53 am 02:53 Cloudy with Light Rain 59 15 55 12.8 87 87 Calm 29.99 1016 10 16 0.03 0.76
3:53 am 03:53 Cloudy with Light Rain 58 14.4 55 12.8 90 90 Calm 30.00 1016 10 16 0.02 0.51
4:53 am 04:53 Cloudy with Light Rain 59 15 55 12.8 87 87 E 8 13 29.97 1015 10 16 0.01 0.25
5:53 am 05:53 Mostly Cloudy 58 14.4 55 12.8 90 90 NW 6 9 29.99 1016 10 16 0.01 0.25
6:53 am 06:53 Cloudy 58 14.4 55 12.8 90 90 WNW 5 7 29.99 1016 10 16 0.00 0.00
7:53 am 07:53 Cloudy 59 15 55 12.8 87 87 Calm 30.01 1016 10 16 0.00 0.00
8:53 am 08:53 Cloudy 59 15 56 13.3 90 90 E 3 6 30.02 1017 10 16 0.00 0.00
9:53 am 09:53 Cloudy 60 15.6 57 13.9 90 90 Calm 30.03 1017 10 16 0.00 0.00
10:40 am 10:40 Cloudy 61 16 57 14 88 88 Calm 30.03 1017 10 16 0.00 0.00
10:53 am 10:53 Cloudy 61 16.1 57 13.9 87 87 Calm 30.04 1017 10 16 0.00 0.03
11:53 am 11:53 Partly Cloudy 65 18.3 57 13.9 76 76 ESE 5 7 30.04 1017 10 16 0.00 0.00
12:46 pm 12:46 Mostly Cloudy 66 18.9 54 12.2 65 65 SE 6 9 30.00 1016 10 16 0.00 0.00
12:53 pm 12:53 Mostly Cloudy 67 19.4 54 12.2 63 63 SE 8 13 30.03 1017 10 16 0.00 0.00
1:10 pm 13:10 Partly Cloudy 68 20 54 12 60 60 VRB 5 7 30.00 1016 10 16 0.00 0.00
1:53 pm 13:53 Mostly Sunny 69 20.6 53 11.7 57 57 S 3 6 30.00 1016 10 16 0.00 0.00
2:53 pm 14:53 Partly Cloudy 71 21.7 51 10.6 49 49 ENE 5 7 29.98 1015 10 16 0.00 0.00
3:53 pm 15:53 Sunny 72 22.2 50 10 46 46 Calm 29.98 1015 10 16 0.00 0.00
4:53 pm 16:53 Sunny 72 22.2 50 10 46 46 ESE 5 7 29.98 1015 10 16 0.00 0.00
5:53 pm 17:53 Sunny 70 21.1 50 10 49 49 ENE 3 6 29.98 1015 10 16 0.00 0.00
6:53 pm 18:53 Clear 64 17.8 51 10.6 63 63 Calm 29.97 1015 10 16 0.00 0.00
7:53 pm 19:53 Clear 62 16.7 51 10.6 67 67 NW 6 9 30.00 1016 10 16 0.00 0.00
8:53 pm 20:53 Clear 59 15 51 10.6 75 75 NE 7 11 30.01 1016 10 16 0.00 0.00
9:53 pm 21:53 Clear 60 15.6 52 11.1 75 75 NNW 5 7 30.01 1016 10 16 0.00 0.00
10:53 pm 22:53 Clear 56 13.3 50 10 81 81 NNE 3 6 30.02 1017 10 16 0.00 0.00
11:53 pm 23:53 Clear 56 13.3 51 10.6 84 84 NW 6 9 30.03 1017 10 16 0.00 0.00

Powered by AerisWeather